When you browse on this site, cookies collect data to enhance your experience and personalize the content and advertising you see.
Visit our Privacy Policy to learn more. By continuing to use the site, you agree to this use of cookies and data.
  • In Czech Republic
  • List of Countries
  • For 7 days
  • Water Temperature
  • Satellite Maps
  • Weather Map
  • Weather Widgets
  • user-avatar
    Login

    Hourly Weather Walpole

    Today, 26 April, Friday

    Time Temperature Precipitation Wind Pressure Humidity
    00:00 +8°C° 0 mm 2 mps 755 mmHg 81%
    01:00 +8°C° 0 mm 2 mps 754 mmHg 86%
    02:00 +8°C° 0 mm 2 mps 754 mmHg 85%
    03:00 +8°C° 0 mm 2 mps 754 mmHg 85%
    04:00 +9°C° 0 mm 2 mps 754 mmHg 84%
    05:00 +9°C° 0.4 mm 2 mps 754 mmHg 87%
    06:00 +9°C° 0.4 mm 2 mps 754 mmHg 89%
    07:00 +9°C° 0.4 mm 2 mps 753 mmHg 91%
    08:00 +9°C° 0.5 mm 3 mps 753 mmHg 90%
    09:00 +10°C° 0.5 mm 3 mps 752 mmHg 88%
    10:00 +10°C° 0.5 mm 4 mps 751 mmHg 87%
    11:00 +11°C° 0.2 mm 4 mps 750 mmHg 87%
    12:00 +12°C° 0.2 mm 4 mps 749 mmHg 88%
    13:00 +13°C° 0.2 mm 3 mps 749 mmHg 88%
    14:00 +13°C° 0.4 mm 3 mps 748 mmHg 90%
    15:00 +14°C° 0.4 mm 3 mps 747 mmHg 92%
    16:00 +16°C° 0.4 mm 3 mps 746 mmHg 93%
    17:00 +16°C° 0 mm 3 mps 745 mmHg 94%
    18:00 +16°C° 0 mm 3 mps 744 mmHg 95%
    19:00 +16°C° 0 mm 3 mps 743 mmHg 96%
    20:00 +15°C° 0.7 mm 4 mps 742 mmHg 95%
    21:00 +16°C° 0.7 mm 5 mps 741 mmHg 93%
    22:00 +16°C° 0.7 mm 5 mps 740 mmHg 92%
    23:00 +16°C° 2.1 mm 5 mps 739 mmHg 92%

    Tomorrow, 27 April, Saturday

    Time Temperature Precipitation Wind Pressure Humidity
    00:00 +17°C° 2.1 mm 4 mps 738 mmHg 93%
    01:00 +15°C° 2.1 mm 4 mps 737 mmHg 94%
    02:00 +16°C° 0.1 mm 3 mps 737 mmHg 95%
    03:00 +14°C° 0.1 mm 3 mps 736 mmHg 95%
    04:00 +15°C° 0.1 mm 2 mps 736 mmHg 96%
    05:00 +13°C° 0 mm 3 mps 736 mmHg 89%
    06:00 +11°C° 0 mm 4 mps 737 mmHg 83%
    07:00 +9°C° 0 mm 5 mps 737 mmHg 77%
    08:00 +10°C° 0 mm 5 mps 738 mmHg 72%
    09:00 +12°C° 0 mm 5 mps 738 mmHg 68%
    10:00 +12°C° 0 mm 5 mps 739 mmHg 64%
    11:00 +13°C° 0 mm 6 mps 740 mmHg 59%
    12:00 +13°C° 0 mm 6 mps 740 mmHg 54%
    13:00 +14°C° 0 mm 6 mps 741 mmHg 49%
    14:00 +12°C° 0 mm 7 mps 741 mmHg 49%
    15:00 +11°C° 0 mm 7 mps 742 mmHg 48%
    16:00 +10°C° 0 mm 7 mps 743 mmHg 48%
    17:00 +9°C° 0 mm 6 mps 744 mmHg 51%
    18:00 +8°C° 0 mm 6 mps 745 mmHg 54%
    19:00 +7°C° 0 mm 5 mps 746 mmHg 57%
    20:00 +7°C° 0 mm 5 mps 747 mmHg 59%
    21:00 +7°C° 0 mm 5 mps 748 mmHg 60%
    22:00 +6°C° 0 mm 4 mps 748 mmHg 62%
    23:00 +6°C° 0 mm 4 mps 749 mmHg 62%

    Day after tomorrow, 28 April, Sunday

    Time Temperature Precipitation Wind Pressure Humidity
    00:00 +5°C° 0 mm 4 mps 750 mmHg 63%
    01:00 +5°C° 0 mm 4 mps 750 mmHg 63%
    02:00 +5°C° 0 mm 4 mps 750 mmHg 65%
    03:00 +4°C° 0 mm 3 mps 751 mmHg 67%
    04:00 +4°C° 0 mm 3 mps 751 mmHg 68%
    05:00 +5°C° 0 mm 3 mps 752 mmHg 66%
    06:00 +5°C° 0 mm 3 mps 752 mmHg 63%
    07:00 +7°C° 0 mm 3 mps 752 mmHg 60%
    08:00 +8°C° 0.1 mm 3 mps 753 mmHg 58%
    09:00 +10°C° 0.1 mm 3 mps 753 mmHg 55%
    10:00 +11°C° 0.1 mm 3 mps 753 mmHg 53%
    11:00 +10°C° 0.1 mm 3 mps 753 mmHg 58%
    12:00 +10°C° 0.1 mm 2 mps 753 mmHg 63%
    13:00 +10°C° 0.1 mm 1 mps 753 mmHg 68%
    14:00 +8°C° 1 mm 2 mps 753 mmHg 74%
    15:00 +8°C° 1 mm 2 mps 753 mmHg 80%
    16:00 +7°C° 1 mm 3 mps 753 mmHg 85%
    17:00 +7°C° 0.1 mm 3 mps 754 mmHg 83%
    18:00 +6°C° 0.1 mm 4 mps 755 mmHg 80%
    19:00 +5°C° 0.1 mm 4 mps 756 mmHg 78%
    20:00 +5°C° 0 mm 4 mps 757 mmHg 76%
    21:00 +4°C° 0 mm 4 mps 758 mmHg 74%
    22:00 +3°C° 0 mm 4 mps 759 mmHg 73%
    23:00 +2°C° 0 mm 3 mps 760 mmHg 72%

    29 April, Monday

    Time Temperature Precipitation Wind Pressure Humidity
    00:00 +2°C° 0 mm 3 mps 761 mmHg 71%
    01:00 +2°C° 0 mm 3 mps 761 mmHg 70%
    02:00 +1°C° 0 mm 3 mps 762 mmHg 69%
    03:00 +1°C° 0 mm 3 mps 763 mmHg 69%
    04:00 +1°C° 0 mm 3 mps 764 mmHg 68%
    05:00 +1°C° 0 mm 3 mps 765 mmHg 62%
    06:00 +1°C° 0 mm 4 mps 765 mmHg 56%
    07:00 +3°C° 0 mm 4 mps 766 mmHg 51%
    08:00 +5°C° 0 mm 4 mps 766 mmHg 44%
    09:00 +6°C° 0 mm 4 mps 766 mmHg 37%
    10:00 +9°C° 0 mm 3 mps 766 mmHg 31%
    11:00 +11°C° 0 mm 3 mps 766 mmHg 28%
    12:00 +12°C° 0 mm 3 mps 766 mmHg 25%
    13:00 +15°C° 0 mm 2 mps 765 mmHg 22%
    14:00 +15°C° 0 mm 2 mps 765 mmHg 23%
    15:00 +15°C° 0 mm 2 mps 765 mmHg 24%
    16:00 +15°C° 0 mm 2 mps 765 mmHg 24%
    17:00 +14°C° 0 mm 2 mps 765 mmHg 30%
    18:00 +12°C° 0 mm 1 mps 765 mmHg 35%
    19:00 +11°C° 0 mm 1 mps 765 mmHg 41%
    20:00 +9°C° 0 mm 2 mps 765 mmHg 47%
    21:00 +8°C° 0 mm 2 mps 765 mmHg 53%
    22:00 +7°C° 0 mm 2 mps 765 mmHg 59%
    23:00 +7°C° 0.2 mm 2 mps 765 mmHg 64%

    30 April, Tuesday

    Time Temperature Precipitation Wind Pressure Humidity
    00:00 +7°C° 0.2 mm 2 mps 764 mmHg 69%
    01:00 +7°C° 0.2 mm 1 mps 764 mmHg 74%
    02:00 +7°C° 0.7 mm 1 mps 764 mmHg 78%
    03:00 +7°C° 0.7 mm 1 mps 764 mmHg 82%
    04:00 +6°C° 0.7 mm 1 mps 763 mmHg 86%
    05:00 +6°C° 0.4 mm 1 mps 763 mmHg 86%
    06:00 +5°C° 0.4 mm 2 mps 763 mmHg 87%
    07:00 +5°C° 0.4 mm 2 mps 762 mmHg 87%
    08:00 +5°C° 0.3 mm 2 mps 762 mmHg 87%
    09:00 +6°C° 0.3 mm 2 mps 762 mmHg 87%
    10:00 +7°C° 0.3 mm 1 mps 762 mmHg 87%
    11:00 +8°C° 0 mm 1 mps 762 mmHg 82%
    12:00 +9°C° 0 mm 1 mps 762 mmHg 77%
    13:00 +11°C° 0 mm 1 mps 762 mmHg 73%
    14:00 +11°C° 0 mm 1 mps 762 mmHg 70%
    15:00 +12°C° 0 mm 1 mps 762 mmHg 67%
    16:00 +13°C° 0 mm 1 mps 762 mmHg 64%
    17:00 +11°C° 0 mm 1 mps 762 mmHg 69%
    18:00 +10°C° 0 mm 1 mps 763 mmHg 75%
    19:00 +8°C° 0 mm 0 mps 763 mmHg 80%
    20:00 +7°C° 0 mm 0 mps 764 mmHg 81%
    21:00 +7°C° 0 mm 0 mps 764 mmHg 83%
    22:00 +7°C° 0 mm 0 mps 764 mmHg 84%
    23:00 +7°C° 0 mm 0 mps 764 mmHg 84%

    1 May, Wednesday

    Time Temperature Precipitation Wind Pressure Humidity
    00:00 +8°C° 0 mm 1 mps 764 mmHg 83%
    01:00 +8°C° 0 mm 1 mps 765 mmHg 83%
    02:00 +8°C° 0 mm 1 mps 765 mmHg 82%
    03:00 +9°C° 0 mm 1 mps 765 mmHg 82%
    04:00 +9°C° 0 mm 1 mps 765 mmHg 81%
    05:00 +9°C° 0 mm 1 mps 765 mmHg 77%
    06:00 +9°C° 0 mm 1 mps 766 mmHg 72%
    07:00 +9°C° 0 mm 1 mps 766 mmHg 68%
    08:00 +8°C° 0 mm 2 mps 766 mmHg 63%
    09:00 +9°C° 0 mm 2 mps 766 mmHg 58%
    10:00 +10°C° 0 mm 2 mps 766 mmHg 53%
    11:00 +10°C° 0 mm 2 mps 765 mmHg 54%
    12:00 +10°C° 0 mm 2 mps 765 mmHg 54%
    13:00 +12°C° 0 mm 2 mps 765 mmHg 55%
    14:00 +10°C° 0.2 mm 2 mps 764 mmHg 63%
    15:00 +9°C° 0.2 mm 3 mps 762 mmHg 70%
    16:00 +8°C° 0.2 mm 3 mps 761 mmHg 78%
    17:00 +8°C° 0.6 mm 3 mps 760 mmHg 82%
    18:00 +8°C° 0.6 mm 2 mps 759 mmHg 86%
    19:00 +8°C° 0.6 mm 2 mps 759 mmHg 90%
    20:00 +7°C° 4.8 mm 3 mps 758 mmHg 92%
    21:00 +7°C° 4.8 mm 3 mps 757 mmHg 93%
    22:00 +6°C° 4.8 mm 4 mps 756 mmHg 94%
    23:00 +5°C° 0.4 mm 4 mps 757 mmHg 93%
    Show more